This is the latest recevied weather packets stored in our database for station/object KB8SSH. If no packets are shown the sender has not sent any weather packets the latest 10 day(s).
| Time | Temp. | Humidity | Pressure | Rain* | Wind** | Luminosity | Snow |
|---|---|---|---|---|---|---|---|
| 1777813075 | 6.67° C | 68% | 1052.6 hPa | 0 mm | - | 78 W/m² | - |
| 1777812773 | 6.67° C | 68% | 1052.6 hPa | 0 mm | - | 58 W/m² | - |
| 1777812469 | 6.67° C | 69% | 1052.6 hPa | 0 mm | - | 37 W/m² | - |
| 1777812167 | 6.11° C | 71% | 1052.6 hPa | 0 mm | - | 36 W/m² | - |
| 1777811865 | 5.56° C | 73% | 1052.6 hPa | 0 mm | - | 37 W/m² | - |
| 1777811563 | 5.56° C | 74% | 1052.6 hPa | 0 mm | - | 35 W/m² | - |
| 1777811258 | 5° C | 74% | 1052.6 hPa | 0 mm | - | 72 W/m² | - |
| 1777810956 | 5° C | 75% | 1052.6 hPa | 0 mm | - | 35 W/m² | - |
| 1777810652 | 5° C | 77% | 1052.6 hPa | 0 mm | - | 41 W/m² | - |
| 1777810349 | 4.44° C | 77% | 1052.6 hPa | 0 mm | - | 36 W/m² | - |
| 1777810045 | 4.44° C | 78% | 1052.6 hPa | 0 mm | - | 34 W/m² | - |
| 1777809743 | 4.44° C | 79% | 1052.2 hPa | 0 mm | - | 28 W/m² | - |
| 1777809440 | 3.89° C | 79% | 1052.2 hPa | 0 mm | - | 26 W/m² | - |
| 1777809138 | 3.89° C | 80% | 1052.2 hPa | 0 mm | - | 25 W/m² | - |
| 1777808836 | 3.33° C | 83% | 1052.2 hPa | 0 mm | - | 24 W/m² | - |
| 1777808532 | 2.78° C | 86% | 1052.2 hPa | 0 mm | - | 22 W/m² | - |
| 1777808229 | 2.22° C | 89% | 1051.9 hPa | 0 mm | - | 22 W/m² | - |
| 1777807928 | 1.67° C | 94% | 1052.2 hPa | 0 mm | - | 19 W/m² | - |
| 1777807625 | 1.11° C | 95% | 1051.9 hPa | 0 mm | - | 19 W/m² | - |
| 1777807323 | 1.11° C | 95% | 1052.2 hPa | 0 mm | - | 17 W/m² | - |
| 1777807018 | 0.56° C | 95% | 1051.6 hPa | 0 mm | - | 15 W/m² | - |
| 1777806715 | 0.56° C | 95% | 1051.9 hPa | 0 mm | - | 14 W/m² | - |
| 1777806411 | 0.56° C | 95% | 1051.6 hPa | 0 mm | - | 12 W/m² | - |
| 1777806108 | 0° C | 95% | 1051.6 hPa | 0 mm | - | 11 W/m² | - |
| 1777805804 | 0° C | 95% | 1051.9 hPa | 0 mm | - | 8 W/m² | - |
* Rain latest hour (hover to see other rain measurements)
** Current wind speed in m/s (hover to see current wind gust speed)